Location: Gu�tanj
(46.5431°N, 14.9692°E)
Time: 08:28:06
(UTC+00:00)

Cosmos 2219 Rocket - Visible Passes

Search period start: 21 June 2021 00:00
Search period end: 01 July 2021 00:00
Orbit: 827 x 847 km, 71.0° (Epoch: 20 June)

Date Brightness Start Highest point End Pass type
(mag) Time Alt. Az. Time Alt. Az. Time Alt. Az.
21 Jun 2.4 20:01:21 10° S 20:06:50 52° ESE 20:12:20 10° NE visible
21 Jun 4.0 21:46:05 10° WSW 21:51:03 30° NW 21:56:02 10° N visible
22 Jun 2.5 19:45:01 10° S 19:50:26 48° ESE 19:55:53 10° NE visible
22 Jun 4.0 21:29:33 10° WSW 21:34:36 32° NW 21:39:40 10° NNE visible
23 Jun 2.6 19:28:42 10° S 19:34:03 45° ESE 19:39:26 10° NE visible
23 Jun 3.9 21:13:01 10° WSW 21:18:09 34° NW 21:23:17 10° NNE visible
24 Jun 3.8 20:56:30 10° WSW 21:01:42 36° NW 21:06:55 10° NNE visible
25 Jun 3.7 20:39:59 10° WSW 20:45:15 38° NW 20:50:33 10° NNE visible
26 Jun 3.7 20:23:29 10° SW 20:28:49 41° NW 20:34:10 10° NNE visible
26 Jun 5.5 22:13:21 10° NW 22:14:28 11° NNW 22:15:34 10° NNW visible
27 Jun 3.6 20:06:59 10° SW 20:12:23 43° NW 20:17:47 10° NNE visible
27 Jun 5.5 21:56:22 10° NW 21:57:57 11° NNW 21:59:32 10° NNW visible
28 Jun 3.5 19:50:30 10° SW 19:55:57 46° NW 20:01:25 10° NNE visible
28 Jun 5.5 21:39:30 10° NW 21:41:26 12° NNW 21:43:23 10° NNW visible
29 Jun 3.4 19:34:02 10° SW 19:39:31 49° WNW 19:45:02 10° NNE visible
29 Jun 5.5 21:22:42 10° WNW 21:24:56 12° NW 21:27:11 10° N visible
30 Jun 5.5 21:05:55 10° WNW 21:08:26 13° NW 21:10:58 10° N visible
